Temp
-7 -7 -7 -7 -7 -7 -8 -8 -7 -7 -8 -8 -8 -8 -8 -8 -8 -8 -8 -8 -9 -8 -8 -8 -8 -8 -8 -8 -8 -7 -7 -7 -7 -7 -7 -7 -7 -7 -7 -7 -7 -7 -7
-7 -7 -7 -7 -8 -8 -8 -8 -8 -8 -8 -8 -8 -8 -8 -8 -8 -8 -9 -9 -9 -9 -8 -8 -8 -8 -8 -8 -8 -8 -8 -8 -8 -8 -8 -7 -7 -8 -8 -8 -7 -7 -7
-7 -7 -7 -7 -8 -8 -8 -8 -8 -8 -8 -8 -8 -8 -8 -8 -8 -8 -8 -8 -8 -9 -8 -8 -8 -8 -8 -8 -8 -8 -8 -8 -8 -7 -7 -7 -7 -8 -8 -8 -7 -7 -7
-7 -7 -7 -7 -7 -7 -7 -7 -7 -7 -8 -8 -8 -8 -8 -8 -8 -8 -8 -8 -8 -8 -9 -9 -9 -8 -8 -8 -8 -8 -8 -8 -8 -8 -8 -8 -8 -8 -8 -8 -8 -8 -8
-7 -7 -7 -7 -7 -7 -7 -7 -7 -7 -7 -7 -8 -8 -8 -8 -8 -8 -8 -9 -8 -8 -8 -8 -8 -8 -8 -8 -8 -8 -8 -8 -8 -9 -9 -9 -8 -8 -8 -8 -8 -8 -8
-7 -6 -7 -6 -6 -6 -6 -6 -7 -7 -7 -7 -7 -7 -7 -7 -8 -8 -8 -8 -8 -8 -8 -8 -8 -8 -8 -8 -9 -9 -9 -8 -9 -8 -8 -9 -9 -9 -9 -9 -8 -8 -8
-6 -6 -6 -6 -6 -6 -6 -6 -6 -6 -6 -6 -6 -6 -6 -6 -7 -7 -7 -8 -8 -8 -8 -8 -8 -8 -8 -8 -9 -8 -8 -8 -8 -8 -8 -8 -8 -8 -8 -8 -9 -9 -9
-6 -5 -6 -6 -6 -6 -6 -6 -6 -6 -6 -6 -6 -6 -6 -6 -7 -7 -7 -7 -8 -8 -8 -8 -9 -9 -8 -8 -8 -8 -8 -8 -8 -8 -8 -8 -8 -8 -8 -8 -8 -8 -8
-5 -5 -5 -6 -5 -6 -5 -5 -6 -6 -6 -7 -6 -6 -6 -7 -7 -7 -7 -7 -8 -8 -8 -8 -8 -8 -8 -8 -8 -9 -9 -9 -8 -8 -8 -8 -8 -8 -8 -8 -8 -8 -8
-5 -5 -5 -6 -5 -5 -5 -5 -5 -6 -6 -6 -6 -6 -6 -6 -7 -7 -7 -8 -8 -8 -9 -8 -8 -8 -8 -8 -8 -8 -9 -9 -9 -8 -8 -8 -8 -8 -8 -8 -8 -8 -8
-6 -5 -5 -6 -5 -5 -5 -5 -6 -6 -6 -6 -6 -7 -7 -7 -7 -7 -7 -8 -8 -8 -8 -8 -8 -8 -7 -7 -8 -9 -9 -8 -9 -8 -8 -8 -8 -8 -8 -8 -9 -9 -9
-5 -5 -5 -5 -5 -5 -5 -5 -6 -6 -6 -6 -7 -7 -7 -7 -8 -8 -8 -8 -9 -9 -9 -9 -9 -8 -8 -8 -8 -8 -9 -9 -9 -9 -9 -9 -9 -9 -9 -9 -9 -9 -9
-5 -5 -5 -5 -5 -5 -5 -5 -5 -6 -6 -7 -7 -7 -7 -8 -8 -8 -9 -9 -9 -9 -9 -9 -9 -9 -9 -9 -8 -8 -8 -8 -8 -8 -8 -8 -8 -8 -8 -9 -9 -9 -9
-5 -5 -5 -5 -5 -5 -5 -5 -5 -6 -6 -6 -7 -7 -7 -7 -8 -8 -9 -9 -9 -9 -9 -9 -9 -10 -10 -10 -9 -9 -8 -8 -8 -8 -9 -9 -9 -9 -9 -9 -9 -9 -9
-5 -5 -5 -5 -5 -5 -5 -5 -5 -5 -6 -6 -6 -7 -7 -7 -8 -8 -9 -9 -9 -9 -9 -9 -9 -10 -9 -9 -9 -9 -8 -8 -9 -8 -8 -8 -9 -9 -9 -9 -9 -9 -9
-4 -4 -5 -5 -5 -5 -5 -5 -5 -5 -6 -6 -6 -7 -7 -7 -8 -9 -9 -9 -9 -9 -9 -9 -9 -9 -9 -8 -8 -8 -8 -8 -8 -9 -9 -9 -9 -9 -9 -9 -9 -9 -9
-4 -4 -4 -4 -5 -5 -5 -5 -5 -5 -6 -6 -6 -6 -7 -7 -8 -8 -9 -9 -9 -9 -9 -9 -9 -9 -9 -8 -8 -8 -8 -8 -8 -8 -8 -9 -9 -9 -9 -9 -9 -9 -9
-4 -4 -4 -4 -4 -5 -5 -5 -5 -6 -6 -6 -6 -6 -7 -7 -8 -8 -9 -9 -9 -9 -10 -9 -9 -9 -9 -9 -8 -8 -8 -8 -8 -8 -8 -9 -9 -9 -9 -10 -10 -10 -10
-4 -4 -4 -4 -4 -5 -5 -5 -5 -6 -6 -6 -6 -6 -7 -7 -8 -8 -8 -9 -10 -10 -10 -10 -10 -8 -8 -8 -8 -9 -8 -8 -9 -9 -8 -9 -9 -9 -9 -10 -10 -10 -10
-4 -4 -4 -4 -4 -5 -5 -5 -5 -5 -6 -6 -7 -7 -7 -7 -8 -8 -9 -9 -10 -11 -10 -9 -9 -8 -9 -8 -9 -8 -8 -8 -8 -9 -9 -9 -9 -9 -9 -9 -10 -10 -10
-3 -4 -4 -4 -4 -4 -5 -5 -5 -5 -6 -6 -6 -6 -7 -8 -8 -9 -9 -10 -10 -10 -9 -9 -8 -8 -7 -8 -8 -8 -8 -8 -9 -9 -9 -9 -9 -9 -9 -9 -10 -10 -10
-3 -3 -4 -4 -5 -5 -5 -5 -5 -5 -6 -6 -6 -6 -7 -7 -8 -9 -9 -10 -10 -10 -10 -10 -9 -8 -8 -8 -8 -8 -8 -8 -9 -9 -10 -10 -9 -9 -9 -10 -10 -10 -10
-4 -3 -3 -4 -4 -4 -5 -5 -5 -5 -5 -6 -6 -6 -6 -7 -8 -8 -9 -9 -9 -9 -9 -10 -9 -8 -8 -8 -8 -8 -8 -8 -9 -9 -9 -9 -9 -9 -9 -10 -10 -10 -10
-4 -3 -3 -4 -4 -4 -5 -5 -5 -5 -5 -6 -6 -6 -7 -7 -8 -9 -9 -9 -9 -9 -9 -8 -8 -8 -8 -8 -8 -8 -8 -8 -8 -8 -9 -8 -9 -9 -9 -10 -10 -10 -10
-3 -3 -4 -3 -4 -4 -5 -5 -5 -5 -5 -5 -6 -6 -7 -7 -7 -8 -9 -9 -9 -9 -8 -7 -8 -7 -8 -8 -7 -8 -8 -8 -8 -8 -9 -9 -9 -9 -10 -10 -10 -10 -10
-3 -3 -3 -3 -4 -4 -4 -5 -5 -5 -5 -5 -5 -6 -7 -7 -7 -8 -8 -8 -9 -9 -9 -7 -7 -7 -7 -7 -7 -8 -8 -8 -8 -8 -8 -9 -9 -9 -10 -10 -10 -11 -12
Height
5900 5899 5900 5899 5899 5900 5899 5900 5901 5902 5903 5903 5903 5902 5903 5903 5902 5902 5901 5901 5901 5900 5899 5899 5899 5899 5900 5900 5900 5900 5900 5900 5899 5899 5899 5898 5899 5899 5900 5900 5900 5900 5899
5901 5902 5902 5902 5902 5902 5903 5903 5904 5904 5905 5904 5903 5904 5904 5904 5904 5903 5902 5902 5903 5901 5901 5901 5901 5901 5901 5901 5901 5900 5900 5900 5899 5898 5898 5898 5898 5898 5899 5899 5900 5899 5898
5904 5905 5905 5906 5905 5906 5906 5906 5906 5906 5906 5905 5905 5904 5905 5905 5905 5905 5905 5904 5903 5904 5904 5903 5903 5903 5903 5902 5902 5902 5901 5900 5899 5895 5895 5897 5898 5899 5900 5900 5901 5901 5900
5907 5907 5908 5908 5908 5908 5909 5908 5908 5907 5906 5907 5907 5906 5906 5906 5906 5906 5906 5906 5905 5905 5905 5904 5905 5905 5905 5904 5903 5902 5901 5900 5898 5894 5894 5898 5899 5900 5900 5900 5901 5901 5901
5909 5910 5910 5910 5910 5910 5911 5911 5910 5910 5909 5909 5909 5909 5908 5907 5907 5907 5906 5906 5906 5906 5906 5905 5906 5906 5905 5904 5903 5902 5901 5900 5900 5898 5898 5899 5901 5901 5900 5901 5901 5901 5901
5911 5912 5912 5912 5912 5913 5914 5913 5913 5912 5911 5911 5911 5911 5910 5909 5907 5907 5907 5907 5907 5907 5907 5906 5906 5905 5905 5904 5904 5903 5902 5901 5901 5900 5900 5899 5899 5899 5898 5899 5900 5900 5900
5913 5914 5914 5915 5915 5915 5916 5916 5916 5916 5915 5914 5914 5914 5913 5912 5911 5910 5909 5908 5908 5908 5907 5906 5905 5904 5904 5904 5904 5904 5903 5902 5902 5902 5901 5901 5900 5899 5898 5898 5899 5899 5899
5915 5916 5917 5917 5918 5918 5918 5919 5919 5919 5918 5917 5917 5917 5917 5915 5914 5912 5911 5910 5909 5908 5908 5907 5907 5906 5906 5905 5905 5905 5904 5904 5903 5902 5902 5901 5901 5900 5899 5898 5898 5898 5898
5916 5918 5919 5919 5919 5920 5920 5921 5921 5921 5920 5921 5920 5919 5919 5917 5916 5915 5913 5912 5911 5911 5911 5911 5909 5908 5906 5905 5904 5905 5905 5905 5904 5903 5902 5901 5900 5899 5899 5898 5897 5896 5895
5919 5920 5921 5921 5922 5922 5923 5923 5923 5924 5923 5923 5922 5923 5922 5920 5919 5918 5917 5916 5915 5914 5913 5912 5910 5909 5906 5905 5903 5903 5903 5903 5903 5902 5900 5900 5899 5897 5896 5896 5895 5895 5894
5920 5922 5923 5923 5924 5925 5925 5926 5926 5927 5926 5926 5925 5925 5924 5923 5922 5921 5920 5919 5917 5916 5914 5912 5911 5909 5906 5905 5904 5903 5903 5903 5902 5901 5899 5898 5897 5897 5896 5894 5893 5892 5891
5922 5924 5925 5925 5926 5927 5928 5929 5928 5929 5928 5928 5927 5927 5925 5925 5924 5924 5923 5922 5920 5917 5915 5913 5912 5910 5908 5906 5906 5905 5904 5902 5901 5901 5899 5898 5896 5894 5893 5892 5890 5889 5888
5924 5925 5927 5927 5928 5929 5930 5931 5931 5931 5930 5930 5929 5928 5927 5926 5926 5925 5925 5923 5922 5920 5919 5915 5913 5911 5909 5908 5906 5906 5905 5905 5904 5903 5901 5898 5896 5894 5892 5891 5890 5888 5886
5925 5927 5928 5929 5929 5931 5932 5933 5933 5932 5932 5932 5931 5930 5929 5928 5928 5928 5927 5926 5925 5924 5921 5918 5915 5913 5911 5911 5909 5909 5908 5906 5905 5903 5901 5899 5896 5894 5892 5890 5889 5886 5884
5927 5929 5930 5930 5931 5933 5935 5935 5936 5935 5933 5934 5932 5932 5931 5930 5929 5929 5929 5929 5926 5924 5923 5921 5918 5915 5913 5911 5909 5908 5907 5905 5903 5902 5899 5897 5894 5893 5891 5888 5886 5884 5881
5928 5930 5932 5932 5932 5935 5937 5938 5938 5937 5935 5935 5934 5933 5933 5932 5931 5930 5930 5928 5928 5926 5925 5923 5920 5917 5913 5912 5909 5908 5906 5904 5901 5900 5899 5897 5894 5891 5889 5886 5884 5881 5878
5930 5931 5934 5934 5934 5937 5938 5939 5940 5939 5938 5937 5937 5935 5934 5933 5932 5932 5931 5930 5929 5928 5926 5923 5921 5918 5916 5913 5910 5907 5905 5905 5902 5899 5897 5894 5892 5889 5887 5884 5881 5878 5875
5931 5933 5935 5936 5936 5938 5940 5940 5941 5940 5939 5940 5939 5938 5935 5935 5934 5933 5932 5931 5930 5928 5925 5922 5918 5915 5913 5911 5908 5906 5904 5902 5900 5897 5894 5891 5888 5885 5882 5879 5875 5872 5869
5932 5934 5936 5938 5938 5939 5941 5942 5942 5942 5941 5940 5941 5940 5938 5936 5935 5935 5934 5932 5931 5928 5924 5919 5914 5910 5908 5907 5907 5906 5904 5901 5898 5895 5892 5888 5884 5880 5875 5872 5868 5865 5861
5933 5936 5938 5940 5940 5940 5942 5943 5944 5944 5943 5942 5941 5941 5940 5938 5937 5937 5936 5934 5931 5926 5920 5916 5911 5904 5899 5904 5906 5906 5904 5901 5898 5894 5889 5884 5880 5875 5870 5866 5861 5857 5854
5934 5936 5938 5940 5941 5943 5944 5945 5945 5946 5945 5944 5942 5942 5940 5939 5937 5937 5936 5934 5930 5924 5917 5911 5910 5907 5903 5905 5906 5906 5903 5900 5896 5891 5887 5881 5876 5871 5866 5861 5855 5849 5845
5933 5936 5938 5939 5942 5944 5945 5946 5947 5946 5946 5946 5944 5944 5942 5940 5938 5937 5936 5934 5931 5927 5921 5913 5899 5907 5911 5911 5909 5905 5902 5898 5893 5889 5884 5878 5872 5866 5860 5855 5850 5844 5838
5933 5936 5937 5939 5942 5944 5945 5946 5948 5947 5947 5947 5945 5944 5943 5941 5939 5937 5937 5935 5933 5929 5925 5917 5911 5912 5915 5911 5907 5903 5900 5895 5890 5884 5878 5871 5865 5859 5854 5848 5842 5836 5830
5932 5934 5936 5938 5941 5944 5945 5946 5948 5949 5949 5948 5945 5944 5943 5942 5940 5939 5939 5937 5935 5930 5926 5923 5920 5918 5914 5909 5905 5901 5897 5893 5888 5884 5877 5869 5862 5855 5848 5842 5836 5829 5822
5931 5933 5935 5937 5940 5943 5945 5946 5947 5949 5949 5949 5947 5946 5945 5943 5943 5941 5940 5938 5936 5933 5929 5925 5921 5917 5914 5910 5906 5902 5897 5892 5886 5879 5873 5865 5857 5851 5844 5837 5829 5821 5812
5930 5934 5936 5938 5940 5943 5943 5945 5946 5948 5949 5949 5949 5947 5946 5945 5943 5942 5941 5940 5938 5935 5931 5927 5922 5918 5915 5910 5906 5901 5896 5889 5883 5876 5870 5862 5854 5846 5839 5831 5821 5811 5802
Wind_Speed
13 12 11 12 11 10 11 10 10 9 8 8 9 12 13 13 11 10 11 11 11 10 10 10 9 10 10 9 8 6 5 4 2 2 3 5 5 5 4 5 7 7 6
12 9 10 10 9 9 8 7 7 6 7 9 9 10 9 8 7 9 9 8 9 9 10 11 9 9 9 8 7 5 4 1 1 5 7 5 5 6 7 7 9 9 8
11 10 9 8 8 6 5 6 5 6 7 8 7 7 6 5 6 5 5 7 6 6 7 7 8 7 6 6 4 3 2 3 6 11 12 12 9 8 7 7 8 8 7
10 10 8 8 8 6 6 7 7 8 8 8 7 6 6 6 5 4 4 4 4 5 5 4 3 3 3 3 2 2 3 3 8 9 9 11 9 7 7 8 7 8 6
10 9 9 9 8 8 8 9 9 10 11 12 10 9 9 7 6 4 5 4 3 3 3 1 1 2 3 3 3 7 6 5 5 8 8 8 5 5 7 7 7 7 6
12 11 10 10 11 12 11 11 11 12 14 15 15 16 15 13 11 8 7 5 3 3 2 1 1 2 3 3 5 6 3 5 3 4 5 4 2 3 9 10 8 8 8
14 14 13 13 15 15 13 13 13 14 16 18 19 18 18 18 17 15 14 12 11 9 6 4 3 2 1 2 3 2 1 3 4 2 1 1 2 3 3 6 9 8 9
15 14 15 16 16 15 14 13 14 14 16 17 19 19 19 20 20 17 15 14 12 10 8 6 5 5 5 4 3 2 2 2 2 4 2 2 3 3 3 2 6 9 10
16 15 15 16 15 14 12 12 14 15 16 17 17 17 17 17 16 15 13 10 10 11 10 10 10 8 7 5 4 3 4 3 4 4 5 5 5 5 4 4 6 8 9
15 15 14 14 13 11 10 11 13 14 15 16 15 14 14 12 12 13 11 10 10 11 12 13 12 13 6 3 1 2 2 3 3 3 3 4 5 5 4 5 7 9 10
14 14 13 12 12 10 8 10 10 12 14 15 13 12 11 11 11 13 13 13 13 12 11 11 12 15 18 13 7 3 4 6 5 3 2 3 4 6 7 8 9 11 12
14 13 12 11 10 8 8 9 9 13 14 14 14 11 10 12 12 14 14 13 12 13 14 13 12 11 14 18 16 14 10 8 4 2 4 5 7 9 10 11 11 10 10
14 13 12 10 8 6 6 7 6 10 12 12 13 13 12 13 14 12 14 13 11 13 16 15 18 17 14 14 14 12 11 10 8 5 4 4 4 7 9 9 10 10 9
14 14 12 9 7 6 6 6 6 9 12 12 13 14 13 14 15 13 13 12 14 16 16 22 23 23 21 14 10 10 10 11 9 6 3 3 3 5 5 6 7 8 9
15 13 13 11 6 6 7 8 8 11 11 12 13 14 12 13 15 14 13 15 15 17 17 21 19 20 20 17 10 8 7 7 8 7 8 8 8 8 8 10 10 11 13
16 13 13 11 8 7 8 9 8 9 10 12 14 14 12 13 14 14 13 13 15 15 14 17 17 15 15 15 13 8 7 5 5 5 7 9 11 11 10 13 15 15 15
16 13 13 11 9 8 10 9 8 8 10 12 15 14 14 14 14 14 13 13 13 15 13 16 14 14 14 16 14 16 9 5 6 6 8 10 10 11 11 15 16 16 17
17 14 14 12 10 11 11 9 8 6 9 11 14 15 15 15 13 13 13 14 15 15 16 16 14 14 14 14 14 12 10 14 13 14 14 15 15 17 16 17 19 20 21
17 15 14 13 12 11 10 9 6 6 7 9 14 15 14 14 12 13 14 14 16 16 17 17 17 13 10 8 12 15 15 17 18 18 18 18 19 21 21 21 23 25 26
15 15 12 12 10 10 8 5 4 5 7 8 12 15 15 13 12 13 14 14 15 15 20 36 42 33 11 3 12 13 18 19 19 20 21 23 25 25 25 26 29 29 30
16 16 14 14 12 10 6 3 3 3 6 7 11 15 16 15 14 15 15 17 18 29 37 37 38 37 35 21 15 18 21 22 26 27 27 28 29 28 28 29 30 33 33
19 19 17 15 12 10 7 3 3 4 5 7 10 14 15 17 15 16 18 21 25 29 32 36 31 30 27 19 17 17 21 23 27 30 29 30 33 31 32 34 34 35 38
20 21 18 16 12 13 9 3 3 3 5 7 9 13 15 16 16 15 18 22 25 29 31 35 36 27 19 20 21 20 23 29 30 34 35 38 40 40 38 39 39 41 43
22 23 20 16 14 13 9 3 1 1 3 6 9 12 14 15 15 14 14 20 22 26 27 29 26 25 19 22 24 25 28 29 31 31 35 35 36 37 37 38 40 41 41
22 24 21 17 16 14 11 6 3 2 3 5 9 11 12 14 12 11 13 17 20 22 23 23 24 24 22 23 25 26 28 29 31 32 33 36 36 34 37 38 39 39 40
19 20 17 16 16 15 12 7 5 4 3 5 8 10 11 11 11 8 10 12 17 20 23 24 24 24 24 24 25 28 30 32 32 34 34 34 34 36 37 37 38 39 41
Wind_Direction
97 87 85 83 77 68 65 70 67 66 70 74 75 79 82 83 83 83 87 101 106 104 101 87 91 96 107 112 114 110 97 79 48 302 226 205 209 199 210 222 214 193 182
106 94 97 92 86 74 72 73 68 68 75 76 76 80 77 85 85 87 97 111 114 116 116 115 108 106 106 109 106 94 83 36 281 297 247 221 197 203 204 215 226 213 191
107 109 101 99 104 100 98 95 83 78 75 76 76 77 77 76 73 66 94 110 111 117 118 119 121 117 106 99 110 120 64 360 332 287 229 206 194 198 210 231 232 229 211
111 113 107 108 106 111 107 93 88 80 78 78 74 70 71 68 76 89 110 138 122 107 111 105 96 99 104 89 61 360 13 44 13 36 169 188 193 195 209 214 225 230 214
110 114 113 111 112 110 105 103 96 90 81 75 70 70 72 75 85 99 118 148 163 151 153 147 75 39 22 4 346 343 349 353 41 73 131 165 187 218 228 230 228 239 247
114 115 113 113 114 113 107 102 96 91 85 81 75 72 76 81 88 95 101 104 113 123 106 71 343 312 316 320 325 334 343 324 28 63 99 139 149 255 238 228 232 245 251
120 122 115 110 115 113 110 107 102 94 87 83 82 81 82 81 78 72 72 73 76 81 84 73 61 48 351 316 301 290 306 311 325 355 32 29 354 360 18 208 228 241 248
126 121 116 113 114 113 110 106 97 87 81 81 82 78 81 80 74 74 72 72 75 78 75 70 51 14 348 327 304 309 272 255 252 265 286 292 313 324 316 235 223 237 253
126 123 119 117 118 115 108 97 88 81 78 78 84 74 79 77 72 71 72 70 67 64 49 37 32 20 353 348 330 326 284 286 259 253 266 275 282 282 281 276 259 256 262
128 126 124 122 117 113 103 86 79 77 81 81 82 79 78 79 75 65 61 66 53 48 54 62 53 42 19 310 234 262 290 261 278 271 263 263 264 261 265 266 261 263 274
137 130 129 129 120 111 88 74 82 83 83 82 80 76 75 74 79 73 79 75 66 54 42 42 43 46 45 53 83 85 13 344 326 282 283 283 276 273 271 271 274 278 279
144 137 140 138 124 111 85 75 84 90 83 75 72 68 57 59 70 83 91 84 77 64 61 54 59 60 69 70 69 70 66 59 53 329 316 308 298 288 284 280 280 277 275
154 147 152 145 131 113 91 79 93 91 87 78 71 59 48 54 60 77 84 86 88 67 58 52 56 58 57 63 73 71 69 59 40 17 357 326 307 292 285 283 281 282 279
165 160 159 149 138 104 99 106 99 95 90 81 71 61 50 54 59 68 76 77 69 73 59 53 53 54 54 51 56 55 43 26 21 19 12 356 341 347 339 326 319 311 307
172 170 166 155 144 111 107 115 108 96 80 70 63 59 59 58 66 74 69 64 63 53 59 51 53 52 43 38 37 38 20 22 11 358 348 340 344 337 339 330 324 317 308
180 177 172 159 150 128 122 116 104 78 65 58 57 50 59 67 69 74 66 58 57 45 53 37 36 29 22 34 37 37 2 360 22 345 334 341 342 340 319 329 322 320 311
185 181 179 162 155 147 136 114 96 75 58 55 54 46 47 59 69 67 58 55 41 33 29 7 359 353 8 10 19 23 21 349 346 348 331 331 327 324 309 300 307 308 313
185 185 182 165 156 154 139 120 100 73 54 53 53 44 38 43 51 56 48 37 30 18 3 360 350 339 343 1 9 4 25 5 355 353 343 336 334 328 323 314 312 316 315
185 184 180 172 161 158 140 121 106 85 54 42 54 48 42 36 39 44 37 33 25 22 1 338 324 316 315 332 359 6 5 4 2 354 344 335 337 335 327 320 319 318 318
192 182 182 179 179 170 153 133 122 94 67 40 45 46 49 42 45 49 41 48 33 5 350 23 28 13 305 356 11 10 6 9 4 354 343 339 339 332 326 322 320 316 315
192 186 185 183 194 173 157 137 117 84 74 42 35 40 39 41 51 57 57 48 25 11 6 19 43 32 43 59 38 15 10 0 360 356 349 339 333 328 324 321 320 319 318
191 188 185 186 196 188 183 171 74 55 52 40 26 36 38 44 56 64 58 46 32 30 16 1 9 30 38 37 23 6 359 351 351 344 338 336 336 330 328 326 324 322 318
196 195 188 189 185 185 197 196 59 34 20 18 18 29 32 42 59 60 53 49 38 32 20 10 16 27 34 16 15 4 355 349 345 341 338 334 332 328 325 325 323 320 316
201 201 196 189 182 190 209 211 87 334 17 4 2 19 29 34 56 69 58 48 32 29 22 21 17 26 15 6 360 352 352 349 340 336 329 323 322 320 319 318 317 316 313
205 203 204 197 190 191 213 224 194 252 346 351 349 4 22 33 52 81 60 44 35 28 21 23 18 10 11 4 4 360 349 344 340 335 332 327 326 324 322 321 318 315 311
214 211 206 206 200 199 210 231 238 252 298 325 340 353 9 28 40 89 57 39 30 22 15 17 11 4 6 2 359 355 352 349 345 341 341 335 329 327 327 326 323 318 313